sat.trackr.live / text

‹ back to catalog

GEESAT-3 07

NORAD 61017 · 2024-159G

PAYLOAD ACTIVE UNKNOWN

§ Identity

Operator
Country
PRC
Launch date
2024-09-05
Launch site
TAISC
Launch vehicle
Mass (kg)
RCS (m²)

External: N2YO · Heavens-Above · Gunter

§ Orbital elements

Epoch: 2026-05-25T05:02:52.200096Z

Period
97.03 min
Inclination
49.9927°
Eccentricity
0.0011787
Mean motion
14.84150840 rev/d
Perigee alt
608.0 km
Apogee alt
624.5 km
Semi-major
6,994.4 km
B*
1.8190e-4
RAAN
189.5313°
Arg perigee
303.6242°
Mean anomaly
56.3572°
Rev number
9,273

§ Raw data

GEESAT-3 071 61017U 24159G   26145.21032639  .00001308  00000+0  18190-3 0  99932 61017  49.9927 189.5313 0011787 303.6242  56.3572 14.84150840 92735

JSON: /api/v1/satellites/61017 · /tle

For live sub-satellite position, see the globe view (requires WebGL).

§ Visibility from observer

Set your observer location to see the next 7 days of passes ≥ 10°. The values pass through the URL so the page stays shareable.

No JS? Fill the form by hand. The geolocation button needs JavaScript.